Time,TemperatureF,DewpointF,PressureIn,WindDirection,WindDirectionDegrees,WindSpeedMPH,WindSpeedGustMPH,Humidity,HourlyPrecipIn,Conditions,Clouds,dailyrainin,SolarRadiationWatts/m^2,SoftwareType,DateUTC
2013-01-22 00:02:00,21.0,19.0,-100.00,NNE,30,0.0,5.0,92,0.00,,,0.00,0.000000,,2013-01-22 08:02:00,
2013-01-22 00:11:00,21.0,19.0,-100.00,NNE,30,0.0,5.0,92,0.00,,,0.00,0.000000,,2013-01-22 08:11:00,
2013-01-22 00:22:00,21.0,19.0,-100.00,NNE,30,0.0,5.0,92,0.00,,,0.00,0.000000,,2013-01-22 08:22:00,
2013-01-22 00:52:00,20.0,17.0,-100.00,SW,231,4.0,8.0,87,0.00,,,0.00,0.000000,,2013-01-22 08:52:00,
2013-01-22 01:02:00,20.0,17.0,-100.00,SW,231,4.0,8.0,87,0.00,,,0.00,0.000000,,2013-01-22 09:02:00,
2013-01-22 01:11:00,20.0,17.0,-100.00,SW,231,4.0,8.0,87,0.00,,,0.00,0.000000,,2013-01-22 09:11:00,
2013-01-22 01:22:00,20.0,17.0,-100.00,SW,231,4.0,8.0,87,0.00,,,0.00,0.000000,,2013-01-22 09:22:00,
2013-01-22 01:52:00,20.0,18.0,-100.00,WSW,253,4.0,6.0,92,0.00,,,0.00,0.000000,,2013-01-22 09:52:00,
2013-01-22 02:02:00,20.0,18.0,-100.00,WSW,253,4.0,6.0,92,0.00,,,0.00,0.000000,,2013-01-22 10:02:00,
2013-01-22 02:11:00,20.0,18.0,-100.00,WSW,253,4.0,6.0,92,0.00,,,0.00,0.000000,,2013-01-22 10:11:00,
2013-01-22 02:22:00,20.0,18.0,-100.00,WSW,253,4.0,6.0,92,0.00,,,0.00,0.000000,,2013-01-22 10:22:00,
2013-01-22 02:52:00,19.0,16.0,-100.00,WSW,240,6.0,9.0,88,0.00,,,0.00,0.000000,,2013-01-22 10:52:00,
2013-01-22 03:02:00,19.0,16.0,-100.00,WSW,240,6.0,9.0,88,0.00,,,0.00,0.000000,,2013-01-22 11:02:00,
2013-01-22 03:12:00,19.0,16.0,-100.00,WSW,240,6.0,9.0,88,0.00,,,0.00,0.000000,,2013-01-22 11:12:00,
2013-01-22 03:22:00,19.0,16.0,-100.00,WSW,240,6.0,9.0,88,0.00,,,0.00,0.000000,,2013-01-22 11:22:00,
2013-01-22 03:53:00,19.0,16.0,-100.00,WSW,245,5.0,9.0,86,0.00,,,0.00,0.000000,,2013-01-22 11:53:00,
2013-01-22 04:03:00,19.0,16.0,-100.00,WSW,245,5.0,9.0,86,0.00,,,0.00,0.000000,,2013-01-22 12:03:00,
2013-01-22 04:12:00,19.0,16.0,-100.00,WSW,245,5.0,9.0,86,0.00,,,0.00,0.000000,,2013-01-22 12:12:00,
2013-01-22 04:22:00,19.0,16.0,-100.00,WSW,245,5.0,9.0,86,0.00,,,0.00,0.000000,,2013-01-22 12:22:00,
2013-01-22 04:53:00,18.0,13.0,-100.00,WSW,242,5.0,9.0,82,0.00,,,0.00,0.000000,,2013-01-22 12:53:00,
2013-01-22 05:03:00,18.0,13.0,-100.00,WSW,242,5.0,9.0,82,0.00,,,0.00,0.000000,,2013-01-22 13:03:00,
2013-01-22 05:13:00,18.0,13.0,-100.00,WSW,242,5.0,9.0,82,0.00,,,0.00,0.000000,,2013-01-22 13:13:00,
2013-01-22 05:23:00,18.0,13.0,-100.00,WSW,242,5.0,9.0,82,0.00,,,0.00,0.000000,,2013-01-22 13:23:00,
2013-01-22 05:53:00,18.0,13.0,-100.00,SW,230,3.0,8.0,80,0.00,,,0.00,0.000000,,2013-01-22 13:53:00,
2013-01-22 06:02:00,18.0,13.0,-100.00,SW,230,3.0,8.0,80,0.00,,,0.00,0.000000,,2013-01-22 14:02:00,
2013-01-22 06:12:00,18.0,13.0,-100.00,SW,230,3.0,8.0,80,0.00,,,0.00,0.000000,,2013-01-22 14:12:00,
2013-01-22 06:22:00,18.0,13.0,-100.00,SW,230,3.0,8.0,80,0.00,,,0.00,0.000000,,2013-01-22 14:22:00,
2013-01-22 06:53:00,19.0,14.0,-100.00,WSW,243,0.0,7.0,81,0.00,,,0.00,0.000000,,2013-01-22 14:53:00,
2013-01-22 07:03:00,19.0,14.0,-100.00,WSW,243,0.0,7.0,81,0.00,,,0.00,0.000000,,2013-01-22 15:03:00,
2013-01-22 07:12:00,19.0,14.0,-100.00,WSW,243,0.0,7.0,81,0.00,,,0.00,0.000000,,2013-01-22 15:12:00,
2013-01-22 07:22:00,19.0,14.0,-100.00,WSW,243,0.0,7.0,81,0.00,,,0.00,0.000000,,2013-01-22 15:22:00,
2013-01-22 07:53:00,19.0,15.0,-100.00,WSW,238,0.0,3.0,84,0.00,,,0.00,0.000000,,2013-01-22 15:53:00,
2013-01-22 08:03:00,19.0,15.0,-100.00,WSW,238,0.0,3.0,84,0.00,,,0.00,0.000000,,2013-01-22 16:03:00,
2013-01-22 08:13:00,19.0,15.0,-100.00,WSW,238,0.0,3.0,84,0.00,,,0.00,0.000000,,2013-01-22 16:13:00,
2013-01-22 08:23:00,19.0,15.0,-100.00,WSW,238,0.0,3.0,84,0.00,,,0.00,0.000000,,2013-01-22 16:23:00,
2013-01-22 08:54:00,20.0,20.0,-100.00,NE,38,0.0,3.0,100,0.00,,,0.00,5.000000,,2013-01-22 16:54:00,
2013-01-22 09:03:00,20.0,20.0,-100.00,NE,38,0.0,3.0,100,0.00,,,0.00,5.000000,,2013-01-22 17:03:00,
2013-01-22 09:12:00,20.0,20.0,-100.00,NE,38,0.0,3.0,100,0.00,,,0.00,5.000000,,2013-01-22 17:12:00,
2013-01-22 09:22:00,20.0,20.0,-100.00,NE,38,0.0,3.0,100,0.00,,,0.00,5.000000,,2013-01-22 17:22:00,
2013-01-22 09:53:00,21.0,21.0,-100.00,NNE,30,0.0,5.0,100,0.00,,,0.00,27.000000,,2013-01-22 17:53:00,
2013-01-22 10:03:00,21.0,21.0,-100.00,NNE,30,0.0,5.0,100,0.00,,,0.00,27.000000,,2013-01-22 18:03:00,
2013-01-22 10:12:00,21.0,21.0,-100.00,NNE,30,0.0,5.0,100,0.00,,,0.00,27.000000,,2013-01-22 18:12:00,
2013-01-22 10:22:00,21.0,21.0,-100.00,NNE,30,0.0,5.0,100,0.00,,,0.00,27.000000,,2013-01-22 18:22:00,
2013-01-22 10:54:00,22.0,22.0,-100.00,NNE,19,1.0,4.0,100,0.00,,,0.00,83.000000,,2013-01-22 18:54:00,
2013-01-22 11:03:00,22.0,22.0,-100.00,NNE,19,1.0,4.0,100,0.00,,,0.00,83.000000,,2013-01-22 19:03:00,
2013-01-22 11:13:00,22.0,22.0,-100.00,NNE,19,1.0,4.0,100,0.00,,,0.00,83.000000,,2013-01-22 19:13:00,
2013-01-22 11:23:00,22.0,22.0,-100.00,NNE,19,1.0,4.0,100,0.00,,,0.00,83.000000,,2013-01-22 19:23:00,
2013-01-22 11:54:00,24.0,18.0,-100.00,NE,41,2.0,5.0,77,0.00,,,0.00,198.000000,,2013-01-22 19:54:00,
2013-01-22 12:03:00,24.0,18.0,-100.00,NE,41,2.0,5.0,77,0.00,,,0.00,198.000000,,2013-01-22 20:03:00,
2013-01-22 12:12:00,24.0,18.0,-100.00,NE,41,2.0,5.0,77,0.00,,,0.00,198.000000,,2013-01-22 20:12:00,
2013-01-22 12:22:00,24.0,18.0,-100.00,NE,41,2.0,5.0,77,0.00,,,0.00,198.000000,,2013-01-22 20:22:00,
2013-01-22 12:53:00,25.0,17.0,-100.00,NE,37,4.0,7.0,70,0.00,,,0.00,252.000000,,2013-01-22 20:53:00,
2013-01-22 13:03:00,25.0,17.0,-100.00,NE,37,4.0,7.0,70,0.00,,,0.00,252.000000,,2013-01-22 21:03:00,
2013-01-22 13:13:00,25.0,17.0,-100.00,NE,37,4.0,7.0,70,0.00,,,0.00,252.000000,,2013-01-22 21:13:00,
2013-01-22 13:22:00,25.0,17.0,-100.00,NE,37,4.0,7.0,70,0.00,,,0.00,252.000000,,2013-01-22 21:22:00,
2013-01-22 13:53:00,25.0,17.0,-100.00,NNE,21,4.0,8.0,71,0.00,,,0.00,207.000000,,2013-01-22 21:53:00,
2013-01-22 14:02:00,25.0,17.0,-100.00,NNE,21,4.0,8.0,71,0.00,,,0.00,207.000000,,2013-01-22 22:02:00,
2013-01-22 14:12:00,25.0,17.0,-100.00,NNE,21,4.0,8.0,71,0.00,,,0.00,207.000000,,2013-01-22 22:12:00,
2013-01-22 14:22:00,25.0,17.0,-100.00,NNE,21,4.0,8.0,71,0.00,,,0.00,207.000000,,2013-01-22 22:22:00,
2013-01-22 14:53:00,25.0,17.0,-100.00,NE,45,3.0,8.0,72,0.00,,,0.00,175.000000,,2013-01-22 22:53:00,
2013-01-22 15:02:00,25.0,17.0,-100.00,NE,45,3.0,8.0,72,0.00,,,0.00,175.000000,,2013-01-22 23:02:00,
2013-01-22 15:12:00,25.0,17.0,-100.00,NE,45,3.0,8.0,72,0.00,,,0.00,175.000000,,2013-01-22 23:12:00,
2013-01-22 15:22:00,25.0,17.0,-100.00,NE,45,3.0,8.0,72,0.00,,,0.00,175.000000,,2013-01-22 23:22:00,
2013-01-22 15:53:00,25.0,17.0,-100.00,NNE,23,2.0,7.0,70,0.00,,,0.00,144.000000,,2013-01-22 23:53:00,
2013-01-22 16:02:00,25.0,17.0,-100.00,NNE,23,2.0,7.0,70,0.00,,,0.00,144.000000,,2013-01-23 00:02:00,
2013-01-22 16:12:00,25.0,17.0,-100.00,NNE,23,2.0,7.0,70,0.00,,,0.00,144.000000,,2013-01-23 00:12:00,
2013-01-22 16:22:00,25.0,17.0,-100.00,NNE,23,2.0,7.0,70,0.00,,,0.00,144.000000,,2013-01-23 00:22:00,
2013-01-22 16:52:00,24.0,16.0,-100.00,WSW,240,4.0,7.0,72,0.00,,,0.00,58.000000,,2013-01-23 00:52:00,
2013-01-22 17:03:00,24.0,16.0,-100.00,WSW,240,4.0,7.0,72,0.00,,,0.00,58.000000,,2013-01-23 01:03:00,
2013-01-22 17:13:00,24.0,16.0,-100.00,WSW,240,4.0,7.0,72,0.00,,,0.00,58.000000,,2013-01-23 01:13:00,
2013-01-22 17:22:00,24.0,16.0,-100.00,WSW,240,4.0,7.0,72,0.00,,,0.00,58.000000,,2013-01-23 01:22:00,
2013-01-22 17:53:00,23.0,16.0,-100.00,NNE,31,0.0,6.0,75,0.00,,,0.00,5.000000,,2013-01-23 01:53:00,
2013-01-22 18:03:00,23.0,16.0,-100.00,NNE,31,0.0,6.0,75,0.00,,,0.00,5.000000,,2013-01-23 02:03:00,
2013-01-22 18:12:00,23.0,16.0,-100.00,NNE,31,0.0,6.0,75,0.00,,,0.00,5.000000,,2013-01-23 02:12:00,
2013-01-22 18:22:00,23.0,16.0,-100.00,NNE,31,0.0,6.0,75,0.00,,,0.00,5.000000,,2013-01-23 02:22:00,
2013-01-22 18:53:00,23.0,16.0,-100.00,NNE,19,4.0,7.0,75,0.00,,,0.00,0.000000,,2013-01-23 02:53:00,
2013-01-22 19:03:00,23.0,16.0,-100.00,NNE,19,4.0,7.0,75,0.00,,,0.00,0.000000,,2013-01-23 03:03:00,
2013-01-22 19:12:00,23.0,16.0,-100.00,NNE,19,4.0,7.0,75,0.00,,,0.00,0.000000,,2013-01-23 03:12:00,
2013-01-22 19:22:00,23.0,16.0,-100.00,NNE,19,4.0,7.0,75,0.00,,,0.00,0.000000,,2013-01-23 03:22:00,
2013-01-22 19:53:00,22.0,16.0,-100.00,NNE,24,3.0,7.0,77,0.00,,,0.00,0.000000,,2013-01-23 03:53:00,
2013-01-22 20:03:00,22.0,16.0,-100.00,NNE,24,3.0,7.0,77,0.00,,,0.00,0.000000,,2013-01-23 04:03:00,
2013-01-22 20:12:00,22.0,16.0,-100.00,NNE,24,3.0,7.0,77,0.00,,,0.00,0.000000,,2013-01-23 04:12:00,
2013-01-22 20:22:00,22.0,16.0,-100.00,NNE,24,3.0,7.0,77,0.00,,,0.00,0.000000,,2013-01-23 04:22:00,
2013-01-22 20:53:00,22.0,17.0,-100.00,NNE,16,2.0,6.0,80,0.00,,,0.00,0.000000,,2013-01-23 04:53:00,
2013-01-22 21:03:00,22.0,17.0,-100.00,NNE,16,2.0,6.0,80,0.00,,,0.00,0.000000,,2013-01-23 05:03:00,
2013-01-22 21:12:00,22.0,17.0,-100.00,NNE,16,2.0,6.0,80,0.00,,,0.00,0.000000,,2013-01-23 05:12:00,
2013-01-22 21:22:00,22.0,17.0,-100.00,NNE,16,2.0,6.0,80,0.00,,,0.00,0.000000,,2013-01-23 05:22:00,
2013-01-22 21:53:00,22.0,17.0,-100.00,NNE,16,4.0,8.0,80,0.00,,,0.00,0.000000,,2013-01-23 05:53:00,
2013-01-22 22:02:00,22.0,17.0,-100.00,NNE,16,4.0,8.0,80,0.00,,,0.00,0.000000,,2013-01-23 06:02:00,
2013-01-22 22:12:00,22.0,17.0,-100.00,NNE,16,4.0,8.0,80,0.00,,,0.00,0.000000,,2013-01-23 06:12:00,
2013-01-22 22:22:00,22.0,17.0,-100.00,NNE,16,4.0,8.0,80,0.00,,,0.00,0.000000,,2013-01-23 06:22:00,
2013-01-22 22:53:00,22.0,17.0,-100.00,NNE,16,1.0,7.0,81,0.00,,,0.00,0.000000,,2013-01-23 06:53:00,
2013-01-22 23:02:00,22.0,17.0,-100.00,NNE,16,1.0,7.0,81,0.00,,,0.00,0.000000,,2013-01-23 07:02:00,
2013-01-22 23:12:00,22.0,17.0,-100.00,NNE,16,1.0,7.0,81,0.00,,,0.00,0.000000,,2013-01-23 07:12:00,
2013-01-22 23:22:00,22.0,17.0,-100.00,NNE,16,1.0,7.0,81,0.00,,,0.00,0.000000,,2013-01-23 07:22:00,
2013-01-22 23:53:00,22.0,17.0,-100.00,NNE,31,1.0,6.0,81,0.00,,,0.00,0.000000,,2013-01-23 07:53:00,